Maple Lake, MN

8:17 PM CST on January 18, 2017 (GMT -0600)
Maple Lake Municipal

Weather History for KMGG - September, 2013

Change the Weather History Date:

Wednesday, September 25, 2013

  Actual Average (KSTC) Record (KSTC)
Temperature  
Mean Temperature 62 °F -  
Max Temperature 74 °F 66 °F 86 °F (1933)
Min Temperature 51 °F 40 °F 24 °F (1947)
Degree Days  
Heating Degree Days 2    
Growing Degree Days 12 (Base 50)    
Moisture  
Dew Point 54 °F    
Average Humidity 77    
Maximum Humidity 100    
Minimum Humidity 50    
Precipitation  
Precipitation 0.01 in - - ()
Sea Level Pressure  
Sea Level Pressure 29.93 in    
Wind  
Wind Speed 2 mph (SE)    
Max Wind Speed 9 mph    
Max Gust Speed -    
Visibility 9 miles    
Events      
Averages and records for this station are not official NWS values.
T = Trace of Precipitation, MM = Missing Value Source: NWS Daily Summary

Daily Weather History Graph

Daily Weather History Graph

Search for Another Location

Airport or City:

Trip Planner

Search our weather history database for the weather conditions in past years. The results will help you decide how hot, cold, wet, or windy it might be!

Date:

Astronomy

Sep. 25, 2013 Rise Set
Actual Time 7:07 AM CDT 7:07 PM CDT
Civil Twilight 6:37 AM CDT 7:36 PM CDT
Nautical Twilight 6:03 AM CDT 8:10 PM CDT
Astronomical Twilight 5:27 AM CDT 8:45 PM CDT
Moon 10:59 PM CDT (9/25) 1:27 PM CDT (9/25)
Length of Visible Light 12h 58m
Length of Day
12h 00m
Waning Gibbous, 64% of the Moon is Illuminated
Sep 25
Waning Gibbous
Sep 26
Last Quarter
Oct 4
New
Oct 11
First Quarter
Oct 18
Full

Hourly Weather History & Observations

Time (CDT) Temp. Dew Point Humidity Pressure Visibility Wind Dir Wind Speed Gust Speed Precip Events Conditions
12:16 AM 52.3 °F 52.0 °F 99% 29.95 in 10.0 mi Calm Calm - N/A   Clear
12:36 AM 53.1 °F 52.7 °F 99% 29.95 in 10.0 mi Calm Calm - N/A   Clear
12:56 AM 54.5 °F 54.1 °F 99% 29.95 in 10.0 mi Calm Calm - N/A   Clear
1:16 AM 54.5 °F 53.4 °F 96% 29.95 in 10.0 mi Calm Calm - N/A   Clear
1:36 AM 54.0 °F 53.1 °F 97% 29.95 in 10.0 mi Calm Calm - N/A   Clear
1:56 AM 52.9 °F 52.2 °F 97% 29.95 in 7.0 mi Calm Calm - N/A   Clear
2:16 AM 53.4 °F 53.1 °F 99% 29.95 in 7.0 mi Calm Calm - N/A   Clear
2:36 AM 53.1 °F 52.9 °F 99% 29.95 in 7.0 mi Calm Calm - N/A   Clear
2:56 AM 53.6 °F 53.2 °F 99% 29.95 in 10.0 mi Calm Calm - 0.01 in   Clear
3:16 AM 53.1 °F 52.7 °F 99% 29.96 in 7.0 mi Calm Calm - N/A   Clear
3:36 AM 51.6 °F 51.3 °F 99% 29.96 in 3.0 mi Calm Calm - N/A   Clear
3:56 AM 52.9 °F 52.9 °F 100% 29.96 in 7.0 mi Calm Calm - N/A   Clear
4:16 AM 52.2 °F 52.0 °F 99% 29.96 in 7.0 mi Calm Calm - N/A   Clear
4:36 AM 51.4 °F 51.1 °F 99% 29.97 in 7.0 mi Calm Calm - N/A   Clear
4:56 AM 51.3 °F 50.9 °F 99% 29.97 in 7.0 mi Calm Calm - N/A   Clear
5:16 AM 52.3 °F 52.2 °F 99% 29.97 in 4.0 mi Calm Calm - N/A   Clear
5:36 AM 52.2 °F 52.0 °F 99% 29.97 in 10.0 mi Calm Calm - N/A   Clear
5:56 AM 52.7 °F 52.3 °F 99% 29.97 in 10.0 mi Calm Calm - N/A   Clear
6:16 AM 52.9 °F 52.5 °F 99% 29.97 in 7.0 mi Calm Calm - N/A   Clear
6:36 AM 52.7 °F 52.2 °F 98% 29.97 in 7.0 mi Calm Calm - N/A   Clear
6:56 AM 52.3 °F 52.0 °F 99% 29.97 in 7.0 mi Calm Calm - N/A   Clear
7:16 AM 52.7 °F 52.2 °F 98% 29.97 in 7.0 mi Calm Calm - N/A   Clear
7:36 AM 52.3 °F 52.0 °F 99% 29.97 in 7.0 mi Calm Calm - N/A   Clear
7:56 AM 52.5 °F 52.2 °F 99% 29.97 in 7.0 mi Calm Calm - N/A   Clear
8:16 AM 54.5 °F 54.0 °F 98% 29.97 in 10.0 mi Calm Calm - N/A   Clear
8:36 AM 56.3 °F 55.0 °F 96% 29.97 in 10.0 mi Calm Calm - N/A   Clear
8:56 AM 58.1 °F 55.9 °F 93% 29.97 in 10.0 mi SE 3.5 mph - N/A   Clear
9:16 AM 59.9 °F 56.5 °F 88% 29.97 in 10.0 mi Calm Calm - N/A   Clear
9:36 AM 61.3 °F 56.3 °F 83% 29.98 in 10.0 mi SSE 3.5 mph - N/A   Clear
9:56 AM 62.8 °F 56.3 °F 79% 29.98 in 10.0 mi SSE 4.6 mph - N/A   Clear
10:16 AM 64.6 °F 57.2 °F 77% 29.98 in 10.0 mi SSE 3.5 mph - N/A   Clear
10:36 AM 66.0 °F 56.8 °F 72% 29.98 in 10.0 mi SSE 5.8 mph - N/A   Clear
10:56 AM 68.0 °F 57.7 °F 70% 29.98 in 10.0 mi SSE 3.5 mph - N/A   Clear
11:16 AM 69.1 °F 56.7 °F 65% 29.98 in 10.0 mi SSE 5.8 mph - N/A   Clear
11:36 AM 69.8 °F 55.8 °F 61% 29.97 in 10.0 mi SSE 8.1 mph - N/A   Clear
11:55 AM 70.7 °F 55.9 °F 59% 29.97 in 10.0 mi ESE 9.2 mph - N/A   Clear
12:16 PM 70.7 °F 54.9 °F 57% 29.95 in 10.0 mi SE 6.9 mph - N/A   Clear
12:36 PM 71.2 °F 55.0 °F 56% 29.95 in 10.0 mi SSE 6.9 mph - N/A   Clear
12:56 PM 71.6 °F 54.9 °F 55% 29.95 in 10.0 mi SE 4.6 mph - N/A   Clear
1:16 PM 72.0 °F 54.9 °F 55% 29.95 in 10.0 mi ESE 5.8 mph - N/A   Clear
1:36 PM 72.7 °F 54.9 °F 53% 29.93 in 10.0 mi South 5.8 mph - N/A   Clear
1:56 PM 72.9 °F 55.6 °F 55% 29.93 in 10.0 mi SE 3.5 mph - N/A   Scattered Clouds
2:16 PM 73.9 °F 55.2 °F 52% 29.92 in 10.0 mi SE 8.1 mph - N/A   Clear
2:36 PM 73.8 °F 54.0 °F 50% 29.90 in 10.0 mi SSE 6.9 mph - N/A   Clear
2:56 PM 74.5 °F 54.9 °F 50% 29.90 in 10.0 mi SE 6.9 mph - N/A   Clear
3:16 PM 74.5 °F 54.7 °F 50% 29.90 in 10.0 mi SE 8.1 mph - N/A   Clear
3:36 PM 74.1 °F 55.2 °F 52% 29.90 in 10.0 mi SSE 9.2 mph - N/A   Clear
3:56 PM 74.1 °F 54.5 °F 50% 29.89 in 10.0 mi SE 6.9 mph - N/A   Clear
4:16 PM 73.4 °F 55.0 °F 52% 29.88 in 10.0 mi ESE 8.1 mph - N/A   Clear
4:36 PM 71.6 °F 54.1 °F 54% 29.88 in 10.0 mi SE 5.8 mph - N/A   Clear
4:56 PM 73.4 °F 54.7 °F 52% 29.88 in 10.0 mi ESE 4.6 mph - N/A   Clear
5:15 PM 72.7 °F 55.6 °F 55% 29.88 in 10.0 mi SE 6.9 mph - N/A   Clear
5:36 PM 71.6 °F 54.5 °F 55% 29.88 in 10.0 mi ESE 9.2 mph - N/A   Clear
5:56 PM 70.7 °F 54.0 °F 55% 29.87 in 10.0 mi SE 6.9 mph - N/A   Clear
6:16 PM 70.7 °F 53.6 °F 55% 29.87 in 10.0 mi ESE 8.1 mph - N/A   Clear
6:36 PM 69.8 °F 53.6 °F 56% 29.86 in 10.0 mi ESE 5.8 mph - N/A   Clear
6:56 PM 68.2 °F 54.0 °F 60% 29.86 in 10.0 mi ESE 5.8 mph - N/A   Clear
7:15 PM 67.3 °F 54.1 °F 63% 29.87 in 10.0 mi ESE 4.6 mph - N/A   Clear
7:36 PM 66.2 °F 55.2 °F 68% 29.87 in 10.0 mi ESE 4.6 mph - N/A   Clear
7:56 PM 65.3 °F 55.4 °F 70% 29.88 in 10.0 mi ESE 4.6 mph - N/A   Clear
8:16 PM 64.8 °F 55.4 °F 72% 29.88 in 10.0 mi ESE 5.8 mph - N/A   Clear
8:36 PM 64.6 °F 55.0 °F 71% 29.88 in 10.0 mi ESE 6.9 mph - N/A   Clear
8:56 PM 64.2 °F 54.7 °F 71% 29.89 in 10.0 mi ESE 6.9 mph - N/A   Clear
9:16 PM 63.5 °F 54.5 °F 72% 29.89 in 10.0 mi ESE 4.6 mph - N/A   Clear
9:36 PM 63.1 °F 54.0 °F 72% 29.89 in 10.0 mi ESE 8.1 mph - N/A   Clear
9:55 PM 62.6 °F 53.8 °F 73% 29.89 in 10.0 mi ESE 6.9 mph - N/A   Clear
10:16 PM 62.1 °F 53.2 °F 73% 29.90 in 10.0 mi ESE 4.6 mph - N/A   Clear
10:36 PM 61.7 °F 52.9 °F 73% 29.90 in 10.0 mi ESE 5.8 mph - N/A   Clear
10:56 PM 61.2 °F 52.7 °F 74% 29.90 in 10.0 mi ESE 4.6 mph - N/A   Clear
11:16 PM 60.8 °F 52.7 °F 75% 29.90 in 10.0 mi ESE 5.8 mph - N/A   Clear
11:36 PM 60.4 °F 52.7 °F 76% 29.90 in 10.0 mi ESE 5.8 mph - N/A   Clear
11:56 PM 60.3 °F 52.9 °F 77% 29.91 in 10.0 mi ESE 5.8 mph - N/A   Clear